Theta_e
310 310 310 310 310 308 309 310 308 307 305 305 304 306 307 307 308 307 308 308 309 310 311 311 311 310 310 309 308 309 308 308 307 308 307 307 307 306 306 305 304 303 302 302 301 300 300 300 298 297 297 297 296 297 297 297 297 297 296 295 294 293 294 296 297 297 294 292 293 293 293 294 293 293 293 294 294 294 294 294 293 293 294 294 294
310 308 306 306 306 306 305 306 307 305 305 305 304 305 306 306 307 307 307 306 307 309 310 310 311 311 309 309 308 308 307 305 305 306 305 305 305 305 305 305 304 302 301 301 300 300 299 298 297 296 296 296 297 298 298 297 297 297 296 294 296 293 292 295 297 295 293 292 290 290 291 291 292 292 292 292 294 294 294 294 294 293 293 293 293
304 302 303 302 303 303 302 302 302 302 304 304 304 303 303 305 306 306 307 306 306 307 309 309 311 311 309 309 308 307 307 307 306 305 304 303 303 303 303 303 303 302 301 300 300 300 299 298 297 296 296 296 296 297 297 296 296 296 295 294 293 295 294 295 296 298 293 295 294 292 289 288 290 290 292 291 292 293 293 293 293 293 292 293 293
300 299 299 299 299 299 299 299 300 302 301 301 301 301 301 302 304 305 306 306 306 306 307 309 310 310 309 307 307 307 305 305 304 303 302 302 301 302 302 302 302 302 301 300 300 300 299 298 297 296 295 296 296 295 295 295 295 295 295 295 294 292 293 291 296 296 297 295 290 293 292 291 288 288 289 290 291 292 292 292 292 292 292 293 293
298 297 297 296 296 296 296 297 298 297 298 298 298 299 299 301 302 304 304 305 305 305 306 307 307 306 306 305 305 304 303 302 302 301 301 301 301 300 300 301 301 301 301 300 299 299 299 298 297 296 295 296 296 295 295 295 295 295 295 295 294 292 292 291 292 296 295 299 295 291 289 289 292 293 291 289 290 290 291 292 292 292 292 292 292
297 296 295 295 295 295 295 296 295 295 296 297 298 299 300 300 301 303 304 304 304 304 305 305 305 304 303 302 301 301 300 300 299 299 300 299 299 300 300 300 300 300 300 300 299 299 299 298 298 297 296 295 295 295 295 296 295 295 295 296 294 295 294 293 291 293 295 297 295 297 299 294 294 293 291 287 289 291 292 291 291 291 291 291 291
297 296 295 294 294 294 294 294 294 294 295 297 298 298 299 300 301 302 302 303 303 303 304 304 304 303 303 302 302 301 300 301 301 301 300 300 300 299 299 299 299 299 299 299 299 299 299 299 298 297 296 295 295 295 295 295 295 295 295 295 295 296 296 292 292 291 292 292 294 295 296 291 299 293 290 292 286 289 290 290 290 291 291 291 291
295 294 294 294 293 293 293 294 294 294 295 296 297 298 298 299 300 300 301 301 302 303 303 303 302 303 302 302 302 301 301 301 301 300 301 300 299 298 298 298 298 298 298 299 299 298 298 298 298 298 296 296 294 294 294 295 295 296 295 295 296 295 297 294 293 293 289 290 293 292 291 293 296 296 299 295 294 288 287 290 291 290 291 291 291
294 293 293 293 293 293 293 293 294 294 294 294 295 296 298 298 298 300 300 300 301 301 301 302 302 302 302 302 301 302 302 302 302 301 300 299 298 298 298 297 297 298 298 298 298 298 297 298 298 297 296 295 294 294 294 295 295 294 294 293 294 294 295 296 296 293 292 294 291 291 293 293 294 295 295 297 294 292 291 288 287 289 290 290 289
294 293 293 293 293 293 294 294 294 294 294 295 295 296 296 296 297 297 297 299 299 300 300 301 302 301 301 301 301 301 301 301 301 300 299 299 298 298 297 297 296 296 297 297 297 298 298 297 297 297 296 296 293 294 294 295 295 294 294 293 294 294 294 295 296 295 294 296 293 293 291 291 292 291 292 293 292 296 292 289 289 286 285 288 289
292 293 293 293 294 293 293 293 293 293 294 294 294 295 295 294 295 295 296 296 298 299 299 300 301 301 300 301 300 300 301 300 299 299 299 298 297 297 297 296 296 296 296 296 297 297 297 297 297 296 296 295 294 294 294 294 294 294 294 294 294 294 293 293 295 296 295 296 294 293 292 292 292 291 291 292 292 290 291 292 291 289 288 287 287
291 291 291 292 292 292 292 292 292 292 293 293 293 293 294 294 294 294 294 295 296 297 298 298 299 300 300 300 300 300 300 300 299 298 299 298 298 297 297 296 296 296 295 295 295 296 296 296 296 296 295 295 294 294 294 294 294 294 293 293 293 294 293 293 293 294 294 295 294 294 294 295 295 295 295 294 293 293 292 291 290 290 289 289 289
290 290 290 290 290 291 291 291 292 291 291 292 292 293 293 293 293 293 293 294 294 295 296 297 297 298 298 299 299 299 299 299 299 298 299 298 298 297 297 296 296 295 294 294 295 295 295 295 295 294 294 295 294 294 294 294 293 293 293 292 292 292 292 292 291 293 293 292 293 294 295 296 296 298 298 295 295 296 294 292 290 289 287 286 287
290 290 290 290 290 290 291 291 291 291 292 292 292 292 292 292 292 292 293 294 294 294 295 295 296 297 297 297 298 298 298 298 298 298 298 298 298 298 297 297 296 295 295 295 295 295 295 295 295 295 295 295 294 294 294 293 293 292 292 292 292 292 292 292 292 293 293 294 294 293 293 294 296 296 296 296 295 294 292 291 288 287 289 287 286
289 289 289 289 289 290 290 290 291 291 291 291 292 292 292 291 291 291 292 293 293 293 294 293 294 295 296 296 296 297 297 297 297 298 298 298 298 297 297 298 297 297 296 296 296 295 294 294 294 294 294 294 294 293 293 293 293 292 292 292 292 292 292 291 291 292 291 292 293 293 293 294 294 293 295 295 295 294 293 292 288 285 284 285 284
288 288 288 289 289 289 290 290 290 290 291 291 291 291 291 291 291 291 291 292 293 293 293 293 293 294 294 295 295 296 296 296 296 297 297 297 297 297 297 297 297 297 297 297 296 295 294 293 294 293 294 294 293 293 293 292 292 291 291 291 290 292 290 290 290 290 291 291 292 293 293 292 293 293 294 294 294 294 294 294 291 289 285 282 285
287 287 287 288 288 289 289 289 290 290 290 290 290 291 291 290 290 290 290 291 292 292 292 293 293 293 293 293 294 294 295 295 295 296 296 297 296 296 296 297 297 297 297 296 295 295 294 293 293 293 293 293 293 293 292 292 291 290 290 290 290 290 290 290 290 289 290 291 291 292 291 292 292 292 292 293 294 294 295 294 293 291 290 287 283
287 287 287 287 288 288 288 289 289 289 290 290 290 291 291 291 290 289 289 289 290 291 291 292 291 291 292 292 292 292 292 293 294 294 295 296 296 295 295 295 295 296 295 296 295 294 294 292 293 292 292 292 292 292 292 291 291 290 290 290 290 290 289 289 290 290 290 290 290 291 291 291 292 291 291 291 292 292 292 293 292 292 292 289 287
286 286 286 286 287 287 288 288 289 290 290 290 291 291 291 291 290 290 289 289 289 290 290 291 291 291 291 291 291 291 292 292 292 293 294 294 294 294 294 294 295 295 294 294 294 293 293 292 292 292 292 291 291 291 291 290 290 289 289 289 289 290 289 288 289 289 289 289 288 289 290 290 291 290 290 290 291 291 291 292 291 292 291 292 290
285 285 285 286 286 287 287 288 288 289 289 290 290 291 290 290 290 289 289 289 289 289 289 289 290 290 291 291 291 291 291 291 291 291 291 292 293 293 293 293 294 294 294 294 293 292 292 291 291 291 291 291 290 290 290 290 289 289 289 288 288 289 288 287 288 289 288 288 288 287 288 289 290 289 289 289 289 289 290 290 290 290 289 290 290
284 285 285 285 286 287 287 288 289 289 289 290 290 290 290 290 289 289 288 288 288 289 288 289 290 290 290 290 290 290 290 290 290 290 290 291 291 292 292 293 293 292 293 292 292 292 292 291 291 291 290 290 290 289 289 289 289 288 288 288 288 287 287 287 288 287 287 287 287 287 287 288 289 288 288 288 288 289 289 289 289 289 288 288 287
284 285 285 286 286 287 287 288 289 289 289 289 289 289 289 288 289 289 288 288 288 288 288 288 288 289 290 290 290 290 290 290 289 290 290 290 290 291 292 292 291 292 292 292 292 292 291 291 290 290 290 290 290 290 289 289 288 288 287 288 287 287 286 286 287 286 286 286 286 286 286 287 288 287 287 287 287 287 287 287 287 287 287 287 287
285 285 286 286 286 287 287 287 288 288 288 289 289 289 288 288 288 288 287 287 288 288 288 288 288 288 289 290 289 289 289 288 288 289 289 290 290 290 291 291 290 291 291 291 291 291 291 290 290 289 290 289 289 289 289 288 288 287 287 287 287 287 286 285 285 286 286 285 284 285 285 286 287 286 286 286 287 286 286 286 285 285 286 286 286
285 286 286 286 286 286 287 287 287 288 288 288 288 288 288 288 288 288 287 287 287 288 288 288 287 287 287 288 288 288 288 287 287 287 288 289 289 290 290 290 290 290 290 290 290 291 291 290 289 289 289 289 288 288 288 287 287 287 287 286 286 286 286 285 285 285 285 284 284 284 285 285 285 284 285 285 285 286 285 285 284 284 284 285 285
284 284 285 285 285 285 286 286 287 287 287 288 287 287 287 287 287 287 287 287 287 288 287 287 286 286 286 286 287 287 286 286 286 287 286 287 288 288 289 289 289 289 289 289 289 290 289 289 288 288 288 288 288 288 287 287 287 287 286 286 286 285 285 285 285 285 285 284 284 284 285 285 284 283 284 284 284 284 284 283 283 283 283 283 283
283 284 284 284 285 285 285 286 286 287 287 287 287 287 287 287 286 287 286 286 286 287 288 287 287 286 286 286 286 286 286 286 286 286 286 287 287 288 288 289 289 289 289 289 289 289 288 288 288 288 288 287 287 287 287 286 286 286 286 286 286 286 285 285 285 285 285 284 284 284 284 284 284 283 284 284 284 283 283 283 283 283 282 282 282
283 283 284 284 284 284 285 286 286 286 287 287 287 287 286 287 286 286 286 286 286 286 287 287 286 286 285 286 286 286 286 285 285 285 286 286 287 287 288 288 289 288 288 288 289 288 288 287 288 288 288 288 287 287 286 285 285 285 285 284 285 285 284 284 284 284 284 284 284 284 284 284 284 284 284 284 283 283 283 283 283 283 282 282 281
283 283 283 283 284 284 285 285 285 286 287 287 287 287 286 286 286 286 286 285 286 285 285 286 286 285 285 286 286 287 286 286 286 285 286 286 286 286 287 287 288 288 288 288 288 288 288 288 287 287 288 288 288 288 288 287 286 285 285 284 284 284 284 284 283 284 284 284 284 284 284 284 284 284 284 285 283 282 282 282 283 283 282 281 281
282 282 283 283 283 284 284 285 285 285 285 286 286 286 286 286 286 286 286 285 285 284 284 285 285 284 284 285 286 287 287 286 285 285 285 285 286 286 286 286 287 287 288 288 288 287 287 287 287 287 286 287 287 287 287 287 286 285 284 284 284 284 283 283 283 283 283 283 284 284 284 284 285 284 284 285 284 283 282 282 282 282 281 280 280
282 282 283 284 284 284 285 285 285 285 285 285 286 285 285 285 285 285 285 285 284 284 284 284 284 283 284 285 286 286 286 285 284 284 284 285 285 286 286 286 286 287 287 287 287 287 287 287 286 286 286 286 286 287 287 287 287 285 284 284 284 284 284 283 283 283 283 283 284 284 284 284 284 283 284 284 285 285 284 283 282 282 281 280 280
282 282 283 283 284 284 285 284 284 285 284 285 285 286 285 284 284 284 284 284 284 283 283 283 283 283 283 284 285 285 285 284 284 283 283 284 284 284 285 285 285 286 286 286 287 286 286 286 286 286 286 286 286 287 287 289 289 289 287 285 285 284 284 284 283 283 283 283 283 283 283 283 283 283 284 285 285 285 284 284 283 283 283 281 279
282 282 283 283 283 284 284 284 284 285 285 285 285 285 284 283 284 284 284 284 283 282 282 282 282 282 282 283 284 284 283 282 282 282 282 283 284 284 284 284 284 284 285 285 285 286 286 286 286 286 286 286 286 287 288 289 289 289 288 286 285 284 284 284 283 283 283 283 283 282 282 283 283 283 282 282 284 284 285 284 284 283 283 283 283
282 282 283 283 283 284 284 284 285 285 284 285 285 284 283 283 283 284 284 282 282 281 281 281 281 281 281 282 283 282 281 280 280 280 280 281 283 283 283 284 283 284 284 284 284 285 285 286 286 286 286 286 286 287 289 289 289 289 289 288 285 285 284 284 284 283 283 283 283 282 281 282 282 282 282 282 282 282 284 284 284 283 283 283 283
283 283 283 284 284 284 285 285 285 285 285 285 285 284 284 284 283 283 282 282 281 281 281 280 280 280 281 281 281 280 279 279 279 278 279 279 282 282 283 283 283 284 284 284 284 284 285 285 285 285 286 286 286 287 288 289 289 289 289 289 286 285 284 284 284 283 283 283 283 282 281 281 282 282 282 281 281 281 282 282 282 281 280 281 283
283 283 283 284 284 284 284 284 284 284 284 284 284 284 283 283 283 282 282 281 280 280 279 279 279 279 280 280 279 279 278 278 277 277 277 278 280 282 282 282 282 282 282 282 283 283 283 284 285 285 285 285 286 287 288 288 289 289 289 289 287 286 285 284 284 284 283 283 283 283 282 282 282 282 282 281 281 280 280 280 280 279 279 280 280
283 283 284 284 284 284 284 283 284 284 283 283 283 283 282 281 282 281 280 280 279 279 279 279 278 279 278 279 278 277 277 276 276 275 275 276 278 281 281 281 281 282 282 283 283 283 283 283 284 284 284 284 286 287 287 288 288 289 289 287 286 286 285 285 284 284 283 283 283 283 282 282 282 282 282 283 282 281 280 279 278 278 278 279 279
285 285 284 285 285 284 284 284 283 283 282 282 282 282 281 280 280 279 279 279 278 278 278 278 278 278 278 278 277 276 275 275 274 274 274 275 276 278 279 280 279 280 280 281 281 281 282 283 283 283 283 284 285 286 286 287 287 288 288 287 286 286 286 285 284 285 283 282 282 282 282 282 281 281 282 284 284 282 279 278 277 276 277 277 277
285 286 285 285 284 284 283 283 282 282 282 282 281 280 279 278 278 278 278 277 277 277 277 277 277 277 277 277 276 275 274 274 273 273 273 273 274 276 277 278 278 278 278 279 280 281 281 282 282 282 283 283 284 285 286 286 286 287 287 286 286 286 285 285 285 285 284 282 282 282 282 281 281 281 283 284 284 282 279 278 277 276 275 275 276
286 285 284 284 283 283 282 282 281 281 281 281 280 279 278 277 277 277 277 276 276 276 276 276 276 276 276 276 275 274 273 272 272 272 272 272 272 274 276 277 277 277 277 279 279 280 280 281 282 282 282 282 283 284 285 285 286 286 286 286 286 285 285 285 285 284 284 283 281 282 282 282 281 281 283 284 285 282 279 278 277 276 274 274 275
285 285 284 283 282 282 281 281 280 280 281 280 279 278 276 275 276 276 275 275 275 275 276 276 275 275 275 274 274 273 272 272 271 271 271 271 272 273 274 275 274 275 275 276 277 278 279 279 280 281 281 282 282 283 284 285 285 286 286 285 285 284 284 284 284 284 282 282 281 281 282 283 283 283 284 285 285 284 279 279 278 275 275 274 277
284 283 283 281 281 281 280 280 280 280 280 279 277 276 275 275 275 274 273 274 275 275 274 274 274 273 273 273 272 272 271 271 271 270 270 271 271 272 273 272 272 272 273 273 275 276 277 278 279 280 281 281 282 282 283 284 285 285 286 286 285 284 284 284 284 283 282 280 280 280 280 282 284 283 283 284 285 285 283 279 278 276 276 277 278
283 282 281 281 280 279 279 279 279 279 278 277 276 274 273 273 273 272 273 274 274 273 273 272 272 271 271 271 270 270 270 270 270 269 269 269 270 271 271 270 270 270 270 271 272 274 275 277 278 279 280 280 281 282 282 283 284 285 285 285 284 285 285 284 284 283 281 279 279 279 279 281 283 283 283 284 285 285 284 279 278 280 280 280 277
281 281 281 279 278 278 278 277 278 277 277 275 274 272 272 271 271 271 272 272 272 271 271 270 270 269 269 269 269 269 269 269 268 268 268 267 268 268 268 268 268 268 269 269 271 273 274 276 277 278 279 280 281 281 282 282 283 284 284 285 285 285 286 286 284 283 280 279 279 278 279 281 282 283 283 284 285 285 284 281 281 281 281 281 279
281 280 279 278 277 276 276 276 275 275 274 274 272 270 270 269 269 271 271 270 269 269 269 268 267 267 267 267 267 267 267 267 267 267 267 266 266 266 267 267 267 267 268 269 270 272 274 275 275 277 278 280 281 281 281 281 281 282 284 284 285 286 286 285 285 284 283 279 278 278 278 281 282 283 283 284 284 284 283 283 282 282 281 281 276
278 278 278 276 275 273 272 272 273 272 272 271 271 269 268 267 268 269 268 267 266 266 265 265 264 265 265 265 265 265 265 265 265 265 265 265 265 265 265 266 267 267 267 268 269 271 272 274 275 276 277 279 280 281 280 280 281 282 283 284 284 285 286 286 285 284 282 279 279 280 280 281 282 283 283 283 284 284 285 284 282 281 281 278 275
277 276 274 272 271 271 270 269 270 270 270 269 268 267 265 265 266 266 265 265 264 263 262 262 262 263 263 263 263 263 263 264 264 265 264 264 264 264 264 265 266 266 267 268 269 270 272 273 274 275 276 277 279 280 279 279 279 280 281 282 283 284 284 285 285 284 284 281 281 281 281 281 281 282 281 281 281 282 284 283 281 281 279 277 275
273 273 271 269 269 268 267 267 266 268 267 267 266 265 264 264 263 264 263 263 262 261 261 261 260 261 261 261 261 261 262 262 262 263 263 264 264 264 264 264 265 265 266 267 269 270 272 273 274 275 276 277 277 278 279 279 278 278 278 279 280 281 283 283 284 284 283 280 280 280 279 280 280 281 282 282 282 282 282 281 279 279 279 276 274
271 270 269 267 267 266 265 265 265 265 265 264 263 263 263 262 262 262 262 261 260 260 260 259 259 260 260 260 260 261 261 261 261 262 262 262 263 263 263 263 264 264 265 266 267 269 270 272 273 275 276 276 277 277 278 278 278 278 277 278 279 280 280 281 282 283 282 280 278 280 280 279 279 279 279 280 280 280 281 279 278 278 277 275 276
268 267 267 265 265 264 264 263 262 263 262 262 261 261 261 261 261 261 261 260 259 259 259 259 259 259 259 260 260 260 260 260 260 261 261 262 261 262 262 263 265 266 266 266 266 267 269 271 272 273 274 274 276 276 278 280 278 279 277 277 277 278 280 281 282 284 280 278 277 277 276 276 276 277 277 277 278 279 279 278 277 277 276 274 274
266 266 265 264 263 262 261 260 260 261 261 260 260 260 261 261 261 261 260 259 259 259 258 258 259 259 259 259 259 260 260 260 260 260 260 261 264 267 265 263 263 267 270 271 271 268 269 270 271 273 275 274 275 277 280 281 281 281 280 280 280 280 281 281 283 284 280 276 276 275 275 275 275 276 276 276 277 278 277 276 276 277 274 273 272
264 263 262 261 261 260 260 259 259 260 259 259 259 259 260 260 260 260 260 259 259 258 258 258 258 259 259 259 259 259 259 260 260 260 260 260 260 262 267 268 269 269 270 271 272 273 274 275 273 271 274 278 279 280 281 281 281 281 281 281 281 281 282 282 283 281 277 275 275 274 274 275 275 275 276 276 276 277 275 274 274 273 273 272 271
Wind_Speed
9 11 9 7 8 8 8 7 7 7 6 6 6 6 7 8 6 8 6 9 8 9 9 9 10 9 9 11 12 9 10 10 10 10 10 10 10 11 11 11 11 12 12 13 13 12 11 9 10 10 9 9 9 10 10 10 9 9 8 7 10 8 5 5 7 8 9 6 5 4 3 3 4 2 3 2 3 3 2 3 3 3 3 3 3
10 13 17 14 13 13 12 10 10 12 11 9 6 6 5 6 8 7 6 8 9 9 8 9 9 9 9 10 9 9 9 10 11 10 10 9 9 11 10 11 11 12 11 12 11 12 12 10 10 10 10 10 9 8 8 8 9 8 9 8 6 9 7 8 8 10 6 8 8 5 3 3 2 2 2 3 3 2 2 3 3 3 3 3 3
14 17 17 17 16 15 13 13 13 11 10 9 9 8 7 6 6 7 6 8 9 9 8 9 8 8 8 7 8 7 6 7 8 7 7 8 8 10 10 10 11 11 11 11 11 11 10 10 11 11 11 10 9 9 9 10 10 11 12 10 9 6 5 7 9 9 7 7 7 7 5 5 4 3 3 4 4 3 3 3 3 3 3 2 3
15 16 16 14 15 16 17 17 15 13 13 13 13 11 7 6 6 5 6 6 7 8 8 7 6 5 5 1 3 5 4 5 5 4 6 8 9 9 9 11 12 11 12 13 10 11 12 11 10 10 12 11 11 11 11 11 10 10 11 10 11 10 7 8 8 6 4 12 8 5 7 5 5 8 8 6 5 4 4 4 3 2 3 2 2
14 16 15 17 21 20 19 18 16 16 16 15 14 12 8 10 7 5 5 5 6 6 8 7 5 4 4 0 1 2 3 3 5 8 7 7 7 8 10 10 11 11 11 13 11 12 11 11 11 11 12 12 11 10 11 12 12 11 12 11 13 12 10 8 9 7 8 5 3 6 3 3 6 5 10 6 6 5 5 3 3 2 2 2 2
15 16 18 19 19 18 19 19 19 17 17 16 14 14 13 10 8 6 3 3 4 4 6 7 6 6 6 6 7 6 7 7 8 7 6 6 7 4 6 8 8 9 9 11 11 11 12 12 12 12 12 11 11 10 9 9 10 11 12 11 12 11 10 10 10 7 7 6 6 5 2 2 5 7 9 5 7 6 4 4 4 3 1 2 2
16 18 20 22 20 20 20 20 18 18 17 14 13 13 13 10 8 6 4 3 1 3 6 5 5 6 8 9 8 8 9 7 6 5 6 6 7 8 7 8 10 10 9 10 11 11 10 11 11 12 12 12 11 11 11 12 11 11 10 10 11 10 10 11 12 11 6 6 5 4 3 2 2 10 7 6 5 6 6 5 5 4 2 3 4
14 16 17 17 18 18 19 18 18 17 15 14 13 12 11 11 11 10 6 4 2 1 4 6 7 6 7 9 7 8 8 7 5 6 5 6 7 7 7 8 9 10 10 11 12 12 11 11 11 11 11 11 11 12 12 11 10 8 11 11 9 10 10 11 11 10 13 9 7 6 3 1 3 4 3 7 5 7 7 4 3 4 4 4 4
16 15 16 16 17 17 17 18 17 17 16 16 15 12 10 12 14 13 10 7 5 1 2 4 5 5 6 7 8 8 7 6 3 5 5 6 8 7 8 8 8 9 10 10 11 13 12 12 12 12 11 11 10 10 10 12 14 14 13 11 12 10 9 10 9 10 11 9 9 6 4 4 3 1 2 2 4 6 6 8 7 5 3 4 4
13 14 13 14 14 14 14 14 18 17 15 14 13 12 14 15 18 17 15 10 8 5 2 2 4 4 5 6 8 7 6 6 5 5 5 5 7 8 8 8 8 9 9 10 10 11 11 12 11 13 13 11 10 12 11 12 12 12 14 14 13 13 10 9 10 9 11 7 10 8 8 5 4 4 4 4 1 2 3 8 9 10 9 7 5
12 12 13 13 12 14 14 17 17 18 16 17 16 16 16 18 19 19 16 11 10 9 6 4 3 4 5 6 7 8 7 6 5 6 5 6 7 8 8 8 7 8 9 9 10 11 11 11 11 12 11 11 11 12 12 13 13 12 12 13 13 15 11 10 8 7 9 7 10 9 10 11 10 9 9 7 7 6 4 5 6 8 8 8 6
12 12 13 12 13 17 17 20 19 18 19 20 18 18 19 19 19 19 18 16 12 10 8 6 5 4 5 6 7 7 8 6 7 8 7 7 7 7 7 7 8 8 8 9 10 12 11 10 10 10 11 11 12 11 11 12 12 12 11 12 12 13 11 10 10 9 11 8 10 9 9 10 9 8 8 9 9 7 8 6 7 6 3 4 5
12 13 13 16 16 17 18 18 18 20 18 19 19 17 17 19 20 20 19 17 14 12 10 9 7 6 6 6 7 7 7 8 8 8 7 6 6 7 7 7 7 8 10 11 11 14 12 11 11 12 11 11 11 11 10 11 10 10 11 11 11 13 13 13 11 11 11 11 10 9 8 8 8 5 6 8 7 6 7 6 5 7 6 5 5
11 12 13 14 14 14 15 15 15 15 17 16 17 17 16 16 19 19 19 17 15 14 12 11 9 8 7 7 7 6 7 7 7 8 8 6 6 7 8 8 8 10 10 11 11 12 11 12 12 12 12 10 10 10 9 9 9 9 10 11 12 11 10 12 11 10 10 10 7 8 9 7 6 4 6 6 7 7 8 8 8 4 2 6 4
11 11 13 13 14 14 13 13 13 14 16 15 15 15 15 16 16 18 18 18 17 15 12 13 11 10 9 7 7 7 7 7 7 7 7 7 6 7 8 8 8 8 9 8 9 11 13 12 12 11 11 10 9 10 8 9 9 9 8 9 8 8 9 10 10 10 10 11 10 9 8 7 6 5 5 7 7 8 9 9 11 9 4 4 6
11 11 12 13 13 13 13 13 13 13 15 14 16 15 15 15 15 16 16 16 16 17 16 14 13 10 10 10 9 8 7 7 8 7 7 7 7 8 9 9 8 8 7 7 9 9 11 12 11 12 11 10 10 11 10 10 10 11 9 9 10 6 9 12 11 10 10 11 12 9 7 8 6 7 6 6 7 8 7 8 10 10 10 7 6
9 10 10 12 12 13 12 13 12 13 13 14 14 13 14 14 14 15 15 14 15 16 15 15 14 13 11 10 10 9 9 9 9 10 9 8 7 8 8 9 8 8 7 6 7 8 10 11 11 11 12 11 11 12 11 11 10 11 10 11 12 10 11 12 11 11 11 10 10 11 10 7 7 6 6 5 6 6 6 6 9 11 10 9 8
9 10 10 10 10 12 11 11 12 13 12 13 14 12 10 10 11 12 13 15 13 13 13 13 14 13 13 13 12 11 9 9 10 11 10 9 8 7 7 7 7 6 6 4 6 8 9 11 11 11 12 12 12 12 11 12 11 11 12 11 12 11 12 10 11 11 10 10 9 9 9 8 7 7 7 6 6 7 6 7 8 8 8 9 9
8 9 10 10 11 12 11 11 10 10 11 11 11 11 12 10 11 10 11 11 11 10 11 10 11 9 10 13 15 13 11 10 9 10 10 9 10 9 9 8 7 6 7 7 8 9 9 10 11 12 11 12 13 13 12 12 13 11 11 11 11 11 11 12 11 10 9 9 11 11 10 9 7 8 7 7 6 6 7 7 6 5 5 6 8
4 5 5 5 6 8 9 10 11 11 12 11 11 11 13 13 14 15 13 12 12 13 13 13 12 11 11 10 11 11 12 11 10 10 9 10 11 10 10 9 9 7 7 8 8 9 10 10 10 11 12 12 13 13 13 13 13 13 12 12 12 13 13 13 11 10 8 9 11 12 12 10 8 8 8 8 8 7 7 7 7 6 6 5 4
5 6 6 6 7 5 4 4 5 6 7 9 10 12 12 11 13 15 16 17 17 14 12 11 11 12 11 12 11 10 11 9 11 11 10 10 10 10 10 9 8 8 8 8 9 9 10 10 11 11 12 12 13 13 12 12 13 14 14 14 13 13 14 12 11 12 11 11 13 13 12 12 9 10 9 8 8 9 8 7 6 6 7 6 7
8 8 8 7 7 7 6 7 7 8 9 10 9 9 11 12 11 11 12 13 14 15 15 14 11 10 13 12 13 11 12 11 11 10 11 12 11 11 10 9 10 10 9 9 10 9 9 10 10 12 12 12 12 13 13 12 14 14 15 10 12 13 14 14 12 12 13 10 11 12 12 11 10 11 9 10 10 10 10 9 8 9 8 8 8
7 6 6 6 7 8 7 9 9 9 8 8 8 9 10 10 11 11 12 13 12 11 12 12 12 13 13 12 12 12 12 12 13 11 12 12 12 12 11 11 10 9 9 9 10 10 9 9 10 10 11 12 13 13 12 13 14 15 15 13 12 13 14 14 14 14 12 9 8 9 10 9 6 10 10 9 8 10 9 10 9 8 9 8 8
8 7 8 8 8 9 9 11 10 10 10 11 10 11 11 11 11 11 12 12 12 11 11 11 11 12 13 12 12 11 13 13 12 10 12 13 11 11 11 11 11 9 9 9 9 11 10 9 9 10 11 11 11 12 13 13 15 15 15 14 13 13 12 13 15 14 12 11 13 11 10 9 8 10 9 9 8 8 8 7 7 6 7 9 9
7 9 9 10 11 12 11 11 11 12 12 12 12 11 10 10 11 11 11 10 10 8 9 9 10 11 9 10 11 11 12 12 12 11 13 11 11 10 10 12 11 10 9 9 8 9 10 9 8 9 9 11 11 12 13 14 14 14 15 14 13 14 13 13 13 13 15 13 12 14 10 12 11 9 9 9 8 11 8 6 7 6 6 6 6
4 5 6 8 8 8 9 10 10 10 10 11 11 11 11 10 10 9 9 9 9 9 9 9 8 9 10 11 10 10 11 12 11 11 11 11 10 10 11 10 10 12 12 10 10 8 7 11 10 9 9 9 8 9 12 13 13 13 13 14 14 13 14 14 14 11 10 9 13 12 10 15 12 13 11 10 9 11 7 7 9 6 6 6 7
3 2 3 4 5 7 7 8 8 9 9 9 9 10 10 10 11 10 10 9 9 9 9 9 10 9 9 9 10 10 10 9 10 10 9 9 11 11 11 11 10 10 11 11 11 10 8 7 10 10 11 11 12 12 11 9 10 11 12 13 13 12 11 10 11 15 17 13 8 8 10 15 16 15 13 14 13 12 8 7 6 6 7 7 8
3 3 4 4 5 5 7 8 9 9 9 9 8 8 8 8 9 10 10 10 9 10 10 10 9 9 9 10 8 8 9 10 10 10 10 9 8 9 11 11 10 11 10 10 11 12 10 9 8 10 10 9 11 13 14 14 13 13 11 12 12 10 11 10 10 11 12 16 12 10 9 12 15 14 14 12 18 16 7 10 7 7 7 7 7
4 5 5 5 6 6 6 6 6 7 8 9 8 9 10 11 10 9 9 9 10 10 11 10 11 11 10 10 9 8 7 9 10 10 11 12 12 10 9 8 10 10 9 9 10 10 11 10 8 8 11 12 12 11 10 10 10 11 11 10 12 10 10 12 12 13 11 11 10 10 13 15 16 23 27 23 24 21 16 11 8 8 8 7 5
6 6 6 6 7 6 6 6 7 8 9 9 8 8 9 10 11 11 11 10 11 11 11 11 10 10 10 11 11 9 9 9 10 11 12 12 12 12 11 11 9 9 9 9 9 9 10 11 11 10 9 9 11 12 14 19 18 11 13 13 14 14 13 12 13 14 15 16 15 13 12 23 23 23 23 23 16 18 17 14 13 12 11 10 8
6 7 7 7 7 8 7 8 8 8 9 9 9 8 8 9 9 9 10 10 10 11 11 10 11 11 11 11 10 10 10 10 10 10 9 10 12 11 11 11 10 8 10 10 10 10 9 8 10 12 13 11 9 10 18 17 19 22 16 15 14 14 14 14 12 14 15 15 14 14 11 18 20 21 20 19 19 20 23 16 9 8 13 24 19
7 7 7 8 8 8 9 9 9 9 9 9 9 8 9 9 9 9 9 9 9 10 10 10 10 11 12 12 11 11 10 10 10 9 10 9 9 10 10 10 10 11 9 8 10 10 10 10 9 11 11 12 11 15 18 17 19 21 20 13 12 13 13 11 12 13 13 13 13 12 10 9 10 14 14 14 18 20 21 22 16 15 17 18 22
7 8 7 8 8 8 9 10 9 9 10 11 10 10 10 10 10 10 9 9 10 10 10 11 10 10 10 10 11 11 12 11 10 10 11 11 10 9 9 10 10 10 9 9 11 11 11 10 10 12 12 12 12 15 17 18 19 21 22 19 14 14 14 13 12 12 14 14 12 11 9 10 12 24 18 13 13 14 19 20 18 16 17 22 21
8 7 7 7 7 7 8 9 10 10 10 10 10 10 10 10 10 9 9 10 10 11 10 11 11 11 11 11 10 9 11 12 12 12 12 12 12 11 10 10 10 10 9 10 11 10 10 10 10 11 12 12 13 14 16 18 19 21 23 20 15 16 15 15 13 13 13 15 15 11 11 12 12 14 14 15 13 13 13 14 13 11 12 15 19
9 9 8 7 8 8 9 9 9 9 10 10 10 10 11 11 10 9 9 10 10 11 11 10 11 11 10 9 9 9 10 11 12 13 13 13 13 12 11 10 9 10 10 10 10 11 12 11 10 10 10 12 11 15 15 17 18 21 23 21 15 15 15 15 13 13 14 15 15 13 14 14 14 16 14 17 15 13 15 12 9 11 10 12 12
9 9 9 8 8 9 10 10 10 9 10 10 11 11 10 11 10 9 10 9 10 9 11 10 10 10 9 10 9 10 10 10 11 12 13 14 14 13 13 11 11 10 9 9 10 9 12 14 12 12 11 13 12 16 16 17 19 21 24 16 14 15 16 16 16 13 12 13 13 12 12 13 13 15 17 24 19 13 18 18 13 10 10 9 10
10 9 9 8 8 9 10 10 10 10 10 10 10 9 9 10 10 9 9 9 10 10 11 11 10 11 10 10 10 9 10 11 11 12 12 13 14 15 14 11 11 12 12 10 10 11 10 11 14 13 12 13 13 13 15 18 19 22 19 14 14 12 13 17 16 15 11 12 11 11 11 11 12 13 19 27 25 17 16 18 15 13 12 9 9
9 8 8 8 8 8 9 9 11 12 11 9 9 8 9 10 10 10 9 10 10 11 12 10 11 10 11 11 9 9 10 11 11 12 13 13 14 13 13 12 12 13 14 13 12 11 11 11 13 14 11 12 13 15 17 18 19 21 19 14 13 14 14 12 12 11 10 10 13 21 16 12 12 13 21 28 28 22 19 18 17 15 17 12 11
10 9 9 9 8 8 9 10 11 13 12 11 10 9 9 9 10 11 11 11 11 12 12 11 12 12 12 10 9 9 10 12 12 13 12 13 14 14 13 12 12 12 14 13 12 12 12 11 11 13 17 16 14 15 16 19 21 21 18 13 14 15 14 12 12 10 9 10 10 16 22 16 13 14 24 28 30 25 20 19 16 12 13 15 14
10 8 6 6 8 9 11 12 12 13 12 10 9 9 9 11 11 11 11 11 12 12 12 12 13 13 11 10 9 10 10 10 12 13 13 13 13 13 13 12 12 12 13 14 14 13 15 13 11 12 13 12 13 13 14 20 20 21 23 15 12 16 18 16 13 10 8 8 9 10 16 25 20 21 25 30 30 28 21 16 10 12 14 13 13
10 8 5 7 8 9 11 13 12 12 10 8 6 7 10 11 11 11 12 12 12 12 13 14 13 13 13 12 11 11 12 12 11 13 14 14 13 14 14 14 13 13 13 15 16 16 15 15 13 12 12 13 13 15 15 20 21 22 24 22 14 16 16 14 12 14 10 8 9 10 10 20 26 24 26 29 30 32 25 17 15 13 13 12 15
8 6 6 6 8 10 12 13 13 12 10 8 6 9 12 12 12 13 13 14 13 14 14 13 14 14 13 13 13 12 12 12 12 12 14 15 14 14 14 14 13 14 17 19 19 16 15 15 13 12 12 14 14 19 15 17 22 24 24 27 17 16 16 14 13 10 7 7 9 9 9 17 26 25 26 29 32 33 33 13 13 16 17 24 18
10 9 5 5 9 12 13 14 12 12 10 8 10 12 12 12 14 16 15 15 15 15 15 15 15 15 15 16 15 14 14 12 14 13 15 17 16 14 14 14 15 16 17 19 20 18 16 15 14 13 12 12 11 11 18 17 21 25 26 26 28 22 23 17 15 11 8 7 6 8 9 21 26 27 28 31 32 34 31 20 23 23 22 27 19
8 8 9 7 10 11 13 14 13 11 9 8 8 11 13 15 18 16 16 15 14 15 15 16 16 16 16 15 15 16 15 15 15 15 15 16 17 16 15 14 15 15 15 16 16 15 15 15 15 14 13 12 10 9 13 20 19 24 25 27 27 28 27 18 13 11 9 9 8 12 11 23 27 29 31 32 30 31 23 30 28 29 26 25 11
9 10 9 7 9 12 13 15 15 13 11 9 8 10 14 17 17 15 15 16 17 17 17 17 17 17 17 17 17 16 17 16 16 16 17 17 18 16 16 15 14 15 15 16 16 15 15 15 14 14 13 12 10 9 9 13 21 22 25 26 27 28 27 29 19 14 10 9 12 17 21 26 28 30 31 31 27 31 34 30 31 31 26 13 11
8 9 8 8 9 10 12 14 18 15 12 10 9 9 14 16 16 15 16 16 17 19 19 19 19 18 18 17 18 19 18 17 17 15 16 16 17 16 15 15 14 15 15 15 16 15 15 15 15 14 14 13 11 9 8 8 11 17 19 24 27 26 27 29 26 16 16 16 19 22 26 27 27 25 21 17 16 18 26 28 29 29 17 15 13
8 8 8 9 9 11 13 14 17 16 12 10 10 11 12 13 15 15 16 16 17 18 20 20 19 17 18 17 18 16 16 16 16 15 15 15 14 14 14 15 14 15 15 16 16 16 16 16 16 15 14 12 12 10 9 8 8 9 10 13 15 17 25 26 19 15 13 13 18 19 16 19 18 26 27 23 21 19 19 20 19 19 16 12 10
7 9 8 9 9 11 14 15 15 15 13 13 12 12 12 13 14 14 15 16 18 17 18 20 20 18 18 17 17 21 20 16 16 15 15 14 14 13 14 15 15 14 15 16 15 16 16 15 15 14 14 13 13 11 10 9 9 9 9 9 10 11 10 11 13 12 11 10 11 15 18 14 15 15 17 14 14 13 14 13 13 14 11 12 16
10 9 7 9 11 12 13 14 16 14 14 14 14 13 12 14 15 14 16 17 18 21 20 22 20 20 18 18 17 16 16 16 16 16 15 15 14 14 15 16 16 14 15 16 16 17 18 17 16 16 16 15 14 13 11 8 8 12 11 8 10 10 9 10 14 13 9 8 10 11 11 12 12 13 14 13 13 12 10 13 15 10 12 12 13
8 8 9 10 9 10 14 15 15 13 13 14 15 14 13 13 13 14 15 16 18 20 20 20 18 17 18 17 16 17 16 16 17 16 16 17 20 25 21 18 17 22 29 32 29 22 20 17 18 18 16 17 16 13 15 15 15 19 20 22 19 18 17 14 14 20 13 10 12 11 12 13 13 13 13 14 13 12 11 13 13 13 12 12 13
9 10 11 10 11 12 13 15 14 13 14 14 14 13 14 13 13 13 14 15 18 18 19 17 17 16 17 18 18 17 17 17 17 18 17 18 17 16 24 30 31 30 30 33 34 36 38 36 27 22 23 32 31 30 28 26 25 23 22 23 24 22 23 23 21 15 14 11 10 10 12 12 12 12 12 13 13 13 11 11 12 11 12 13 13
Wind_Direction
317 311 304 306 321 323 316 313 311 309 289 286 281 253 240 237 228 223 206 204 202 199 200 198 202 207 211 211 215 204 205 205 206 207 205 204 195 191 188 188 187 183 185 184 191 185 186 175 168 172 178 181 184 186 179 173 169 165 152 156 158 160 170 165 153 138 131 116 108 114 104 88 84 94 124 129 138 142 140 131 120 114 106 99 87
327 341 350 348 358 349 345 339 343 347 351 347 325 309 281 247 234 224 201 201 208 208 204 203 206 205 204 213 213 211 205 204 209 204 205 199 194 190 192 189 189 187 186 188 191 187 185 174 171 171 177 184 188 183 171 160 158 159 152 153 176 172 170 175 165 155 165 161 153 148 140 135 119 128 140 148 157 142 140 128 125 109 102 108 118
350 355 0 2 356 0 1 1 3 360 353 360 359 347 326 289 258 235 212 200 205 204 203 207 206 208 206 216 207 217 218 219 218 216 200 200 194 192 193 192 194 192 187 188 192 190 184 174 176 174 180 179 179 177 173 171 176 170 170 167 163 182 169 179 183 201 175 163 152 137 165 164 170 201 178 175 168 153 142 131 123 117 106 109 120
6 9 7 1 9 13 14 8 359 358 8 7 3 358 348 328 296 259 242 217 208 201 204 207 209 203 192 178 177 224 246 210 211 204 199 197 202 196 198 198 195 194 191 192 190 186 185 180 174 177 182 183 184 180 179 182 176 175 178 177 164 163 177 188 209 211 218 149 166 216 163 191 169 209 185 174 170 165 168 150 142 136 134 143 128
20 18 11 13 16 15 12 8 5 8 4 0 356 355 346 329 314 286 256 231 220 209 198 196 172 175 190 218 7 251 319 262 235 240 230 222 217 204 209 200 199 198 194 195 196 190 187 183 181 181 180 184 186 184 183 186 180 180 178 174 180 174 172 178 200 209 236 267 191 138 133 216 233 150 162 166 177 182 185 173 148 160 143 147 124
29 23 20 22 21 13 14 11 11 6 4 356 353 354 347 335 328 320 280 231 222 221 199 201 208 204 191 200 217 222 230 225 228 239 236 226 222 236 214 208 207 206 203 197 200 197 194 190 185 180 182 181 189 189 181 175 181 180 184 182 183 190 173 166 184 208 232 244 266 316 345 233 177 142 163 181 175 205 169 189 179 182 179 157 142
28 28 25 25 20 20 18 15 11 7 358 347 351 356 352 347 355 357 339 321 174 187 181 190 198 202 203 208 213 218 225 226 217 217 216 208 205 208 200 196 202 206 210 204 204 204 202 197 191 187 185 186 185 185 182 184 182 184 178 189 189 184 176 180 181 186 197 252 241 255 290 250 277 140 199 126 174 186 209 197 201 194 190 177 154
30 29 27 26 25 24 21 17 16 10 359 357 359 357 356 8 18 17 10 359 15 213 188 199 206 206 207 210 215 222 223 233 201 206 208 201 199 205 204 208 207 210 208 203 204 202 202 201 198 194 191 191 185 190 186 180 176 180 186 191 185 193 188 188 183 178 184 199 192 217 239 258 273 317 212 196 177 166 184 186 201 180 195 184 160
29 26 24 21 21 22 21 21 16 12 10 9 2 351 350 23 30 26 19 8 10 22 228 205 221 226 217 221 231 236 239 243 228 198 209 192 202 205 204 205 202 208 215 212 206 204 201 202 198 198 196 194 190 195 190 181 180 178 180 187 189 191 194 202 188 183 193 185 160 201 193 192 193 258 297 277 200 189 169 180 181 166 202 182 169
26 27 25 24 23 24 22 22 24 19 14 10 7 2 12 21 28 25 18 7 5 350 312 246 226 236 233 234 239 243 241 241 237 229 216 203 208 209 202 202 200 200 207 213 213 214 209 204 202 201 199 195 190 198 188 181 185 186 186 187 187 187 194 203 201 185 195 182 180 165 177 167 183 190 201 189 64 259 207 186 175 171 184 183 172
22 22 22 23 21 22 19 27 23 21 17 17 17 16 20 25 24 24 16 5 4 359 347 322 282 261 258 255 251 252 255 252 247 237 224 213 218 214 206 206 202 204 203 207 209 212 216 213 210 206 204 198 193 198 194 191 189 187 187 190 190 189 189 191 202 195 192 175 185 182 184 179 182 186 185 190 188 174 171 161 163 184 186 159 181
19 20 21 18 21 22 22 23 20 18 20 19 16 17 24 28 26 24 16 8 4 359 355 342 326 301 287 286 278 271 266 264 253 252 236 225 221 223 210 206 206 203 201 206 207 207 209 212 214 212 210 207 204 205 201 194 191 187 187 192 196 195 190 185 195 193 192 187 192 195 197 195 199 191 184 181 184 189 187 174 164 145 135 145 140
24 22 18 20 20 18 19 18 18 20 18 16 18 18 23 27 28 27 21 11 6 3 359 354 342 327 314 298 288 285 279 276 271 263 259 242 231 229 216 212 207 203 206 207 206 201 202 205 206 211 214 214 212 209 207 198 191 190 191 193 196 192 194 190 191 197 188 193 194 199 206 203 204 191 174 178 187 180 186 146 141 164 180 157 163
28 26 25 25 23 19 19 18 19 19 19 18 17 20 22 25 26 28 24 18 13 11 9 2 353 341 329 315 302 293 285 278 273 271 267 259 246 240 230 225 220 215 210 209 205 197 199 206 206 209 213 215 210 210 210 202 198 199 199 200 202 200 193 189 197 194 191 199 190 193 208 205 208 175 189 175 172 166 183 168 146 144 135 157 147
28 28 28 27 23 22 21 18 17 17 17 19 19 21 21 24 23 25 22 19 18 15 15 12 3 349 336 321 305 298 293 288 282 275 270 266 255 250 245 238 233 229 221 216 200 196 199 202 205 207 210 211 206 208 208 204 203 205 208 208 210 204 200 193 204 194 194 194 200 201 196 203 200 183 191 189 176 182 181 165 151 151 156 160 176
26 26 24 26 24 23 23 21 19 17 18 20 21 20 21 21 22 23 22 20 20 17 19 16 10 359 346 329 320 310 300 293 287 282 274 267 264 257 255 248 242 242 234 216 205 198 197 200 202 205 206 208 208 211 210 210 206 207 209 205 208 199 200 200 206 199 202 195 200 199 198 206 191 188 198 188 183 184 181 166 169 165 160 174 186
22 29 25 20 22 25 25 21 17 18 18 20 20 22 24 23 21 23 25 22 20 21 20 18 14 11 2 350 341 333 321 308 298 292 285 277 265 259 255 255 249 241 240 218 212 206 205 204 208 209 208 208 207 207 208 210 206 207 210 205 208 202 205 204 204 204 204 195 201 195 204 199 192 186 196 193 184 182 184 178 184 186 184 170 174
26 26 33 28 25 25 25 24 22 21 16 17 18 18 19 26 24 25 23 24 23 21 19 17 14 9 3 1 358 350 334 317 307 299 295 287 273 264 257 251 241 233 229 219 219 219 213 207 212 210 209 208 209 207 205 208 208 214 215 212 208 198 202 208 208 206 199 194 196 193 203 207 183 186 196 189 187 186 181 186 192 201 204 196 180
26 21 20 21 20 19 19 18 18 19 20 18 16 17 16 18 20 27 28 28 24 22 23 23 21 14 4 2 0 356 347 332 317 307 298 286 280 273 263 256 254 236 231 228 220 223 220 216 214 217 212 210 209 209 206 207 206 212 213 217 210 203 202 210 210 203 201 190 196 197 199 208 181 192 190 186 187 182 187 185 192 193 205 222 197
24 27 31 30 29 28 24 17 14 14 12 10 11 13 15 12 12 13 14 17 20 21 17 19 19 16 12 13 11 5 357 346 333 320 310 301 291 282 274 269 259 254 238 228 225 219 217 215 214 215 215 211 209 209 206 209 207 212 212 212 211 203 209 211 208 201 197 195 196 200 199 202 182 187 192 189 186 189 186 185 185 188 199 205 213
19 21 17 19 22 20 18 19 18 21 23 17 15 15 12 12 15 14 12 8 8 10 13 12 6 8 12 12 9 8 5 357 350 342 325 313 303 292 283 272 270 258 250 237 229 224 218 215 213 213 215 214 211 210 207 208 211 214 214 211 207 200 205 210 207 203 201 199 204 204 201 202 178 189 193 185 187 186 184 185 178 181 187 185 190
14 11 9 6 7 7 12 20 20 19 22 19 18 18 16 17 16 14 15 16 10 5 3 358 357 1 3 2 6 8 4 359 355 352 346 336 322 313 301 287 273 265 251 245 241 233 225 219 217 217 213 216 216 214 211 209 214 215 216 211 205 196 200 205 204 205 199 198 202 202 202 196 187 196 188 188 187 182 184 182 185 183 187 180 192
2 4 3 1 2 3 6 12 14 15 15 14 15 16 15 14 16 16 15 14 12 6 3 357 353 356 358 359 359 1 360 4 4 359 353 345 338 325 317 305 294 282 267 254 250 242 231 221 220 217 216 217 216 215 213 213 217 217 217 213 206 200 200 199 203 205 194 185 192 204 203 185 172 197 201 195 183 185 183 185 178 178 182 179 179
6 5 6 5 5 6 9 10 10 10 9 10 9 8 8 8 10 9 11 10 8 4 356 357 354 352 353 354 358 357 358 359 359 354 351 347 337 331 322 312 303 289 279 268 251 252 246 231 226 222 219 217 212 214 216 215 216 217 219 220 213 211 207 204 203 198 186 184 198 201 202 177 177 198 199 191 191 186 181 180 166 168 179 172 172
8 7 4 2 6 7 5 2 2 1 2 2 4 5 5 5 3 4 3 1 360 357 354 355 351 345 345 354 354 356 356 356 353 348 344 340 339 335 327 316 310 296 278 271 260 244 248 241 230 223 219 220 218 215 218 219 218 219 220 219 214 210 209 212 211 202 194 184 189 201 192 166 172 197 196 196 187 188 185 170 173 168 169 158 152
360 1 1 3 359 359 0 2 360 358 357 354 355 356 356 356 360 359 357 357 355 353 345 345 346 346 347 350 350 350 348 346 344 343 340 338 333 333 331 326 319 311 300 280 268 256 234 243 239 231 223 221 215 216 220 222 221 219 219 221 220 214 212 211 211 212 205 194 193 193 175 177 181 198 198 190 177 186 175 184 178 163 159 145 156
339 334 339 337 351 352 356 352 353 351 352 349 347 346 346 346 348 352 352 352 348 347 346 345 347 346 345 350 346 345 342 337 335 333 333 334 335 332 330 329 326 316 306 298 286 264 248 244 245 241 236 232 229 227 225 219 217 218 219 219 222 217 209 208 214 215 213 217 219 201 170 182 194 201 196 186 180 182 187 185 169 155 149 153 164
336 340 336 339 341 344 350 351 348 348 343 340 340 336 340 339 339 342 345 348 347 344 341 341 340 342 342 343 341 337 336 334 331 329 326 325 323 331 334 328 325 319 313 303 292 285 268 248 241 245 241 236 234 234 233 230 226 225 220 219 219 215 211 211 216 214 214 217 210 207 202 197 199 193 192 173 173 178 176 188 183 159 161 160 165
340 334 337 330 337 333 332 335 333 329 329 329 330 336 338 341 337 340 342 343 343 339 337 338 338 339 338 333 330 329 331 337 332 330 330 330 330 325 322 319 318 316 314 306 294 285 279 267 251 237 242 246 246 239 233 223 216 218 213 211 217 219 210 217 218 218 211 208 211 207 210 212 212 210 207 202 199 191 171 179 178 168 162 164 155
333 328 329 327 323 318 314 316 317 321 323 324 324 330 334 332 331 332 337 339 342 336 334 333 333 332 331 330 329 327 332 334 335 335 332 329 328 328 327 324 317 311 311 309 302 288 277 274 269 256 244 235 239 245 241 237 233 229 229 233 233 233 228 222 218 218 218 217 218 214 218 219 216 216 215 212 203 196 198 188 167 167 165 159 164
327 323 325 320 318 317 316 313 315 317 319 321 318 320 321 318 317 322 325 332 333 328 327 327 327 328 326 325 326 327 329 329 327 327 324 325 325 324 322 319 318 317 315 312 311 302 286 267 264 267 262 253 239 237 241 235 231 227 227 232 231 232 231 229 221 214 216 213 214 211 210 215 215 213 213 208 204 201 202 208 209 201 177 161 165
314 314 313 317 316 320 318 316 315 314 316 317 317 314 313 312 312 311 315 319 320 317 318 317 319 323 324 325 326 326 327 325 326 323 321 313 310 310 312 312 315 319 317 315 307 295 295 289 275 266 257 254 252 248 241 236 230 226 221 223 225 230 227 227 224 216 218 214 210 206 200 188 189 199 197 196 202 205 207 207 203 199 202 205 192
302 305 304 306 314 311 311 310 310 313 314 314 316 312 310 313 311 310 313 313 313 313 312 313 314 316 316 317 322 325 325 324 326 325 319 312 305 306 308 314 314 311 309 305 309 302 290 281 275 277 271 261 256 254 248 236 230 227 223 217 229 228 228 230 225 220 218 218 209 195 193 189 200 205 201 195 191 195 205 206 208 203 205 204 207
287 291 297 299 301 302 302 301 298 299 303 307 309 305 303 305 304 303 307 308 309 309 308 308 310 310 313 314 316 320 319 319 320 320 319 312 308 303 305 307 305 307 308 303 303 297 296 292 280 275 272 270 267 266 251 243 235 226 225 221 227 229 230 231 225 218 219 220 213 192 193 195 189 187 190 191 183 185 184 191 196 199 203 207 209
284 286 290 291 293 295 296 298 301 302 303 301 300 300 301 299 298 297 299 302 303 303 303 303 302 303 307 308 311 314 314 315 318 319 318 312 306 303 304 304 303 301 302 300 301 299 300 295 287 278 275 271 266 266 260 247 242 233 228 224 228 229 231 233 229 222 222 221 219 206 200 200 190 187 186 181 178 174 180 177 174 192 197 200 201
271 278 281 286 291 296 300 299 298 297 295 297 294 299 299 295 296 293 296 295 294 294 294 299 299 301 303 304 307 308 308 310 311 313 313 311 309 304 304 304 300 295 288 288 288 286 290 296 292 288 280 275 269 267 261 252 246 242 236 228 231 231 232 234 233 226 218 219 218 203 197 198 190 193 184 182 180 167 185 187 176 173 181 190 200
260 263 272 283 292 293 294 294 290 289 291 292 296 297 295 295 295 294 294 293 294 292 294 295 295 297 299 298 301 303 303 304 305 305 304 304 305 304 303 304 299 295 290 287 282 280 281 284 288 288 279 274 275 268 260 256 253 249 243 237 233 231 230 233 233 230 213 210 203 190 193 196 187 194 185 189 186 168 187 190 190 176 179 173 189
262 268 275 282 286 289 288 289 293 292 293 297 301 304 299 295 292 293 293 291 291 291 295 295 292 294 292 295 296 298 297 299 300 296 298 301 299 295 293 296 294 294 291 285 281 281 275 272 278 283 274 277 277 274 269 262 255 251 243 241 237 237 231 225 228 218 210 209 209 209 205 197 189 192 183 190 190 182 191 194 194 188 187 182 179
259 267 280 289 292 292 291 290 287 290 301 309 308 303 294 287 291 291 288 285 288 293 294 296 297 297 295 291 290 289 291 292 291 290 291 291 292 290 287 290 289 289 286 288 285 280 279 274 270 274 279 275 273 274 266 261 255 250 244 239 242 241 238 229 223 220 206 213 203 211 207 203 189 182 182 191 193 190 195 194 192 177 185 189 180
263 270 271 288 294 294 291 292 293 296 305 306 307 300 293 290 288 290 286 287 294 296 300 299 296 294 293 291 288 287 279 281 284 288 290 287 286 285 284 286 288 288 289 287 284 279 280 275 269 271 271 266 267 268 263 258 254 249 244 239 237 243 240 238 229 222 207 205 202 196 199 202 193 188 190 195 196 193 193 194 174 184 184 189 165
274 284 319 300 293 288 289 292 295 300 305 309 311 303 297 298 295 292 290 300 303 305 304 297 295 294 291 289 288 286 284 280 279 285 287 286 284 282 284 285 288 289 285 283 280 279 276 272 268 261 260 262 261 265 263 255 252 248 244 240 236 239 243 241 236 231 218 193 199 196 190 199 201 197 197 198 197 202 198 194 193 194 192 160 154
278 277 277 289 293 293 294 295 299 306 313 321 325 312 305 305 302 296 305 309 309 309 304 299 293 290 287 287 288 286 281 282 283 285 283 282 279 278 280 283 285 285 285 284 280 276 272 268 266 257 253 260 256 248 253 254 250 248 244 239 238 239 239 243 240 231 203 196 191 186 186 188 198 200 200 198 202 205 201 189 192 186 174 172 174
300 302 312 317 307 303 301 301 307 312 321 329 332 317 310 308 302 307 315 312 312 310 306 300 295 289 289 290 289 286 283 284 284 282 281 280 281 280 279 280 278 275 273 275 274 272 266 263 262 260 252 247 241 239 240 247 247 247 244 241 239 241 240 239 240 232 205 195 169 171 178 178 192 199 203 206 205 206 205 199 188 181 178 172 167
297 305 313 326 308 304 305 308 311 312 318 324 329 317 311 309 306 317 317 315 315 312 306 299 294 291 292 291 289 288 283 282 281 282 283 280 279 277 276 274 276 274 275 272 271 270 266 260 257 259 255 243 229 233 232 236 241 243 243 242 242 242 241 240 237 235 221 183 178 193 176 182 191 198 204 208 207 206 204 199 190 187 181 174 158
303 307 317 325 320 318 315 309 306 309 317 322 330 323 313 307 311 320 320 318 314 310 304 296 295 294 293 293 292 288 287 286 284 283 281 279 277 278 277 274 271 270 268 266 267 266 263 262 260 257 258 255 243 223 229 231 234 240 243 243 243 242 243 243 239 235 214 191 180 177 180 188 193 199 204 206 207 208 206 197 190 185 180 172 164
306 314 335 338 324 312 306 302 302 309 322 320 326 327 315 310 317 317 313 310 307 305 302 298 298 296 294 295 291 290 287 283 281 278 274 272 271 272 271 272 270 267 268 267 269 269 265 262 260 256 255 254 250 238 230 227 221 235 239 243 242 242 242 242 244 234 223 186 182 187 191 195 198 201 203 202 204 206 207 196 184 179 182 176 169
322 330 345 325 326 312 306 307 302 310 322 320 328 323 314 312 310 309 307 305 304 302 300 297 296 297 297 296 293 292 291 287 281 278 273 271 271 270 269 270 267 266 267 269 270 270 269 266 264 261 260 257 249 242 236 227 217 223 224 229 235 239 240 242 245 235 208 185 189 187 192 193 196 199 197 198 201 199 204 190 184 181 184 174 154
326 323 329 319 311 306 304 306 304 312 319 317 316 312 309 307 303 302 302 301 298 297 296 295 294 293 292 291 289 287 286 284 281 277 275 273 270 266 267 265 267 267 269 271 271 270 271 270 270 270 269 264 257 248 233 222 220 214 220 215 223 231 230 229 235 232 212 186 175 187 189 192 194 196 198 195 198 198 196 180 180 178 171 164 172
320 319 327 314 312 308 306 307 304 310 310 307 305 303 303 302 301 300 303 298 295 297 293 291 292 293 291 292 288 286 285 285 283 280 273 269 269 269 267 267 262 263 263 266 270 268 266 267 271 272 271 268 262 257 245 208 210 210 208 212 215 223 217 222 230 212 182 172 171 179 184 185 188 192 192 192 193 190 184 179 181 169 168 164 166
314 311 311 308 309 308 305 303 301 307 304 302 300 302 299 297 297 297 298 293 294 297 295 294 293 292 292 291 291 289 288 286 284 283 283 278 269 267 266 265 267 262 262 263 264 265 266 268 271 266 261 261 264 265 271 262 233 225 225 226 224 222 226 226 228 206 171 172 180 177 182 182 184 188 190 191 186 185 178 178 181 173 161 158 165
319 316 313 315 311 309 303 300 302 304 300 297 297 299 299 296 295 291 293 290 294 297 296 294 293 291 292 292 291 289 288 285 284 284 282 283 284 274 269 269 268 270 269 269 268 266 267 265 263 265 266 266 267 267 266 264 262 255 240 236 231 227 227 231 226 196 177 177 179 178 182 182 184 186 191 190 185 184 170 169 169 166 164 159 157